Hourly Weather Otta

Today, 24 July, Saturday

Time Temperature Precipitation Wind Pressure Humidity
00:00 +14°C° 0 mm 1 mps 695 mmHg 75%
01:00 +13°C° 0 mm 1 mps 695 mmHg 78%
02:00 +12°C° 0 mm 0 mps 695 mmHg 79%
03:00 +11°C° 0 mm 0 mps 695 mmHg 79%
04:00 +11°C° 0 mm 0 mps 695 mmHg 80%
05:00 +13°C° 0 mm 0 mps 695 mmHg 74%
06:00 +14°C° 0 mm 0 mps 695 mmHg 68%
07:00 +16°C° 0 mm 0 mps 695 mmHg 63%
08:00 +17°C° 0 mm 0 mps 696 mmHg 60%
09:00 +19°C° 0 mm 0 mps 696 mmHg 57%
10:00 +22°C° 0 mm 1 mps 696 mmHg 53%
11:00 +23°C° 0 mm 1 mps 696 mmHg 50%
12:00 +24°C° 0 mm 1 mps 696 mmHg 47%
13:00 +25°C° 0 mm 1 mps 695 mmHg 44%
14:00 +25°C° 0.1 mm 1 mps 695 mmHg 44%
15:00 +25°C° 0.1 mm 1 mps 695 mmHg 45%
16:00 +25°C° 0.1 mm 1 mps 695 mmHg 45%
17:00 +23°C° 0.3 mm 1 mps 695 mmHg 53%
18:00 +21°C° 0.3 mm 2 mps 695 mmHg 61%
19:00 +20°C° 0.3 mm 2 mps 695 mmHg 70%
20:00 +18°C° 0.8 mm 2 mps 695 mmHg 75%
21:00 +18°C° 0.8 mm 1 mps 695 mmHg 81%
22:00 +16°C° 0.8 mm 1 mps 695 mmHg 87%
23:00 +16°C° 0.1 mm 1 mps 695 mmHg 87%

Tomorrow, 25 July, Sunday

Time Temperature Precipitation Wind Pressure Humidity
00:00 +15°C° 0.1 mm 1 mps 695 mmHg 86%
01:00 +14°C° 0.1 mm 0 mps 695 mmHg 86%
02:00 +13°C° 0 mm 0 mps 695 mmHg 86%
03:00 +14°C° 0 mm 1 mps 695 mmHg 87%
04:00 +13°C° 0 mm 1 mps 694 mmHg 87%
05:00 +15°C° 0 mm 1 mps 695 mmHg 83%
06:00 +16°C° 0 mm 1 mps 695 mmHg 78%
07:00 +18°C° 0 mm 1 mps 695 mmHg 74%
08:00 +20°C° 0 mm 1 mps 695 mmHg 67%
09:00 +20°C° 0 mm 2 mps 695 mmHg 59%
10:00 +23°C° 0 mm 2 mps 696 mmHg 52%
11:00 +24°C° 0 mm 2 mps 696 mmHg 47%
12:00 +24°C° 0 mm 3 mps 696 mmHg 43%
13:00 +25°C° 0 mm 3 mps 696 mmHg 38%
14:00 +25°C° 0 mm 3 mps 696 mmHg 38%
15:00 +25°C° 0 mm 4 mps 696 mmHg 38%
16:00 +26°C° 0 mm 4 mps 696 mmHg 38%
17:00 +25°C° 0 mm 3 mps 696 mmHg 42%
18:00 +24°C° 0 mm 3 mps 695 mmHg 46%
19:00 +22°C° 0 mm 3 mps 695 mmHg 50%
20:00 +21°C° 0 mm 2 mps 695 mmHg 55%
21:00 +19°C° 0 mm 2 mps 695 mmHg 59%
22:00 +18°C° 0 mm 2 mps 695 mmHg 63%
23:00 +17°C° 0 mm 2 mps 695 mmHg 65%

Day after tomorrow, 26 July, Monday

Time Temperature Precipitation Wind Pressure Humidity
00:00 +16°C° 0 mm 2 mps 695 mmHg 66%
01:00 +16°C° 0 mm 2 mps 695 mmHg 68%
02:00 +15°C° 0 mm 2 mps 695 mmHg 70%
03:00 +14°C° 0 mm 2 mps 695 mmHg 73%
04:00 +14°C° 0 mm 2 mps 695 mmHg 75%
05:00 +15°C° 0 mm 2 mps 695 mmHg 72%
06:00 +16°C° 0 mm 2 mps 696 mmHg 68%
07:00 +18°C° 0 mm 2 mps 696 mmHg 65%
08:00 +19°C° 0 mm 2 mps 696 mmHg 60%
09:00 +20°C° 0 mm 3 mps 696 mmHg 55%
10:00 +21°C° 0 mm 3 mps 696 mmHg 50%
11:00 +21°C° 0 mm 4 mps 696 mmHg 47%
12:00 +22°C° 0 mm 4 mps 696 mmHg 45%
13:00 +23°C° 0 mm 5 mps 696 mmHg 43%
14:00 +22°C° 0 mm 5 mps 696 mmHg 42%
15:00 +22°C° 0 mm 5 mps 695 mmHg 42%
16:00 +22°C° 0 mm 5 mps 695 mmHg 41%
17:00 +21°C° 0 mm 4 mps 695 mmHg 45%
18:00 +21°C° 0 mm 3 mps 695 mmHg 49%
19:00 +20°C° 0 mm 3 mps 694 mmHg 53%
20:00 +19°C° 0 mm 3 mps 694 mmHg 58%
21:00 +18°C° 0 mm 2 mps 694 mmHg 63%
22:00 +17°C° 0 mm 2 mps 694 mmHg 67%
23:00 +17°C° 0.1 mm 2 mps 694 mmHg 73%

27 July, Tuesday

Time Temperature Precipitation Wind Pressure Humidity
00:00 +16°C° 0.1 mm 1 mps 694 mmHg 79%
01:00 +16°C° 0.1 mm 1 mps 693 mmHg 85%
02:00 +15°C° 0.3 mm 1 mps 693 mmHg 88%
03:00 +15°C° 0.3 mm 1 mps 693 mmHg 92%
04:00 +15°C° 0.3 mm 2 mps 693 mmHg 95%
05:00 +15°C° 0.6 mm 2 mps 693 mmHg 95%
06:00 +15°C° 0.6 mm 2 mps 692 mmHg 95%
07:00 +15°C° 0.6 mm 2 mps 692 mmHg 96%
08:00 +16°C° 0.5 mm 2 mps 692 mmHg 94%
09:00 +16°C° 0.5 mm 2 mps 692 mmHg 92%
10:00 +16°C° 0.5 mm 3 mps 692 mmHg 90%
11:00 +16°C° 1.3 mm 3 mps 692 mmHg 92%
12:00 +16°C° 1.3 mm 3 mps 692 mmHg 94%
13:00 +14°C° 1.3 mm 3 mps 691 mmHg 96%
14:00 +16°C° 1 mm 2 mps 691 mmHg 94%
15:00 +16°C° 1 mm 2 mps 691 mmHg 93%
16:00 +16°C° 1 mm 2 mps 691 mmHg 92%
17:00 +16°C° 0.2 mm 2 mps 691 mmHg 91%
18:00 +16°C° 0.2 mm 2 mps 691 mmHg 91%
19:00 +16°C° 0.2 mm 1 mps 690 mmHg 90%
20:00 +16°C° 1.8 mm 1 mps 690 mmHg 92%
21:00 +15°C° 1.8 mm 1 mps 690 mmHg 94%
22:00 +15°C° 1.8 mm 1 mps 690 mmHg 96%
23:00 +15°C° 0.7 mm 1 mps 690 mmHg 96%

28 July, Wednesday

Time Temperature Precipitation Wind Pressure Humidity
00:00 +15°C° 0.7 mm 1 mps 689 mmHg 97%
01:00 +14°C° 0.7 mm 1 mps 689 mmHg 97%
02:00 +15°C° 0.2 mm 1 mps 689 mmHg 97%
03:00 +15°C° 0.2 mm 1 mps 688 mmHg 97%
04:00 +15°C° 0.2 mm 1 mps 688 mmHg 97%
05:00 +15°C° 0.2 mm 1 mps 688 mmHg 95%
06:00 +15°C° 0.2 mm 1 mps 688 mmHg 93%
07:00 +15°C° 0.2 mm 1 mps 688 mmHg 91%
08:00 +16°C° 0.4 mm 1 mps 688 mmHg 86%
09:00 +17°C° 0.4 mm 2 mps 687 mmHg 81%
10:00 +18°C° 0.4 mm 2 mps 687 mmHg 75%
11:00 +19°C° 0.2 mm 3 mps 687 mmHg 71%
12:00 +19°C° 0.2 mm 3 mps 687 mmHg 67%
13:00 +20°C° 0.2 mm 4 mps 687 mmHg 62%
14:00 +20°C° 0.1 mm 4 mps 687 mmHg 60%
15:00 +20°C° 0.1 mm 5 mps 687 mmHg 58%
16:00 +20°C° 0.1 mm 5 mps 687 mmHg 57%
17:00 +19°C° 0.1 mm 4 mps 687 mmHg 62%
18:00 +19°C° 0.1 mm 4 mps 687 mmHg 67%
19:00 +18°C° 0.1 mm 3 mps 686 mmHg 72%
20:00 +16°C° 0 mm 3 mps 686 mmHg 78%
21:00 +15°C° 0 mm 2 mps 686 mmHg 85%
22:00 +13°C° 0 mm 2 mps 686 mmHg 92%
23:00 +13°C° 0 mm 2 mps 685 mmHg 92%

29 July, Thursday

Time Temperature Precipitation Wind Pressure Humidity
00:00 +12°C° 0 mm 2 mps 685 mmHg 93%
01:00 +12°C° 0 mm 1 mps 684 mmHg 93%
02:00 +12°C° 0.1 mm 1 mps 684 mmHg 93%
03:00 +12°C° 0.1 mm 1 mps 684 mmHg 93%
04:00 +12°C° 0.1 mm 1 mps 683 mmHg 93%
05:00 +12°C° 1.9 mm 1 mps 683 mmHg 94%
06:00 +12°C° 1.9 mm 1 mps 683 mmHg 95%
07:00 +13°C° 1.9 mm 1 mps 682 mmHg 96%
08:00 +13°C° 1.7 mm 1 mps 682 mmHg 96%
09:00 +13°C° 1.7 mm 1 mps 682 mmHg 95%
10:00 +13°C° 1.7 mm 1 mps 682 mmHg 95%
11:00 +13°C° 0.4 mm 1 mps 682 mmHg 91%
12:00 +14°C° 0.4 mm 2 mps 682 mmHg 88%
13:00 +14°C° 0.4 mm 2 mps 682 mmHg 85%
14:00 +14°C° 0.5 mm 3 mps 682 mmHg 79%
15:00 +16°C° 0.5 mm 3 mps 682 mmHg 72%
16:00 +17°C° 0.5 mm 4 mps 682 mmHg 66%
17:00 +17°C° 0.2 mm 4 mps 682 mmHg 67%
18:00 +16°C° 0.2 mm 3 mps 682 mmHg 67%
19:00 +16°C° 0.2 mm 3 mps 682 mmHg 67%
20:00 +13°C° 0 mm 3 mps 682 mmHg 74%
21:00 +12°C° 0 mm 3 mps 682 mmHg 80%
22:00 +10°C° 0 mm 3 mps 682 mmHg 87%
23:00 +10°C° 0 mm 2 mps 682 mmHg 90%
Show more